When you browse on this site, cookies collect data to enhance your experience and personalize the content and advertising you see.
Visit our Privacy Policy to learn more. By continuing to use the site, you agree to this use of cookies and data.

Hourly Weather Cumaná

Today, 14 July, Tuesday

Time Temperature Precipitation Wind Pressure Humidity
00:00 +26°C° 0 mm 3 mps 753 mmHg 95%
01:00 +26°C° 0 mm 3 mps 752 mmHg 94%
02:00 +26°C° 0 mm 3 mps 752 mmHg 94%
03:00 +26°C° 0 mm 3 mps 752 mmHg 94%
04:00 +26°C° 0 mm 3 mps 752 mmHg 94%
05:00 +26°C° 0 mm 2 mps 752 mmHg 94%
06:00 +27°C° 0 mm 2 mps 752 mmHg 90%
07:00 +28°C° 0 mm 2 mps 752 mmHg 87%
08:00 +29°C° 0 mm 1 mps 753 mmHg 84%
09:00 +31°C° 0 mm 2 mps 753 mmHg 78%
10:00 +32°C° 0 mm 2 mps 753 mmHg 72%
11:00 +34°C° 0 mm 2 mps 753 mmHg 66%
12:00 +34°C° 0.2 mm 2 mps 752 mmHg 71%
13:00 +32°C° 0.2 mm 2 mps 752 mmHg 76%
14:00 +33°C° 0.2 mm 3 mps 751 mmHg 81%
15:00 +31°C° 0.1 mm 3 mps 751 mmHg 81%
16:00 +32°C° 0.1 mm 4 mps 750 mmHg 81%
17:00 +32°C° 0.1 mm 4 mps 750 mmHg 81%
18:00 +29°C° 0 mm 4 mps 751 mmHg 86%
19:00 +28°C° 0 mm 4 mps 751 mmHg 91%
20:00 +26°C° 0 mm 3 mps 752 mmHg 95%
21:00 +26°C° 0 mm 3 mps 752 mmHg 95%
22:00 +26°C° 0 mm 3 mps 753 mmHg 95%
23:00 +26°C° 0 mm 3 mps 753 mmHg 94%

Tomorrow, 15 July, Wednesday

Time Temperature Precipitation Wind Pressure Humidity
00:00 +26°C° 0 mm 3 mps 753 mmHg 94%
01:00 +26°C° 0 mm 3 mps 752 mmHg 94%
02:00 +26°C° 0 mm 3 mps 752 mmHg 94%
03:00 +26°C° 0 mm 3 mps 752 mmHg 93%
04:00 +25°C° 0 mm 3 mps 751 mmHg 93%
05:00 +25°C° 0 mm 2 mps 751 mmHg 93%
06:00 +27°C° 0 mm 2 mps 752 mmHg 88%
07:00 +28°C° 0 mm 1 mps 752 mmHg 84%
08:00 +30°C° 0 mm 1 mps 752 mmHg 80%
09:00 +30°C° 0.1 mm 1 mps 752 mmHg 78%
10:00 +31°C° 0.1 mm 2 mps 752 mmHg 75%
11:00 +32°C° 0.1 mm 2 mps 752 mmHg 73%
12:00 +32°C° 0.4 mm 2 mps 752 mmHg 75%
13:00 +32°C° 0.4 mm 2 mps 751 mmHg 77%
14:00 +32°C° 0.4 mm 2 mps 751 mmHg 79%
15:00 +31°C° 0.5 mm 2 mps 750 mmHg 82%
16:00 +30°C° 0.5 mm 2 mps 750 mmHg 86%
17:00 +30°C° 0.5 mm 2 mps 749 mmHg 89%
18:00 +29°C° 0.3 mm 2 mps 750 mmHg 91%
19:00 +27°C° 0.3 mm 2 mps 750 mmHg 94%
20:00 +26°C° 0.3 mm 3 mps 751 mmHg 97%
21:00 +26°C° 0.1 mm 3 mps 751 mmHg 96%
22:00 +26°C° 0.1 mm 3 mps 752 mmHg 95%
23:00 +26°C° 0.1 mm 2 mps 752 mmHg 94%

Day after tomorrow, 16 July, Thursday

Time Temperature Precipitation Wind Pressure Humidity
00:00 +26°C° 0.1 mm 2 mps 752 mmHg 94%
01:00 +25°C° 0.1 mm 2 mps 751 mmHg 93%
02:00 +25°C° 0.1 mm 2 mps 751 mmHg 92%
03:00 +25°C° 0 mm 2 mps 751 mmHg 92%
04:00 +25°C° 0 mm 2 mps 751 mmHg 91%
05:00 +25°C° 0 mm 2 mps 751 mmHg 90%
06:00 +26°C° 0 mm 2 mps 751 mmHg 86%
07:00 +28°C° 0 mm 1 mps 752 mmHg 83%
08:00 +29°C° 0 mm 1 mps 752 mmHg 79%
09:00 +31°C° 0 mm 2 mps 752 mmHg 71%
10:00 +32°C° 0 mm 2 mps 752 mmHg 63%
11:00 +35°C° 0 mm 2 mps 752 mmHg 55%
12:00 +34°C° 0.3 mm 2 mps 752 mmHg 63%
13:00 +34°C° 0.3 mm 2 mps 751 mmHg 71%
14:00 +32°C° 0.3 mm 2 mps 750 mmHg 79%
15:00 +31°C° 0.6 mm 2 mps 750 mmHg 82%
16:00 +30°C° 0.6 mm 3 mps 750 mmHg 85%
17:00 +30°C° 0.6 mm 3 mps 749 mmHg 89%
18:00 +29°C° 0.2 mm 3 mps 750 mmHg 91%
19:00 +28°C° 0.2 mm 3 mps 751 mmHg 93%
20:00 +27°C° 0.2 mm 3 mps 751 mmHg 95%
21:00 +26°C° 0 mm 3 mps 752 mmHg 93%
22:00 +26°C° 0 mm 3 mps 752 mmHg 92%
23:00 +26°C° 0 mm 4 mps 752 mmHg 91%

17 July, Friday

Time Temperature Precipitation Wind Pressure Humidity
00:00 +25°C° 0 mm 3 mps 752 mmHg 90%
01:00 +25°C° 0 mm 3 mps 751 mmHg 89%
02:00 +25°C° 0 mm 3 mps 751 mmHg 88%
03:00 +25°C° 0 mm 3 mps 751 mmHg 87%
04:00 +25°C° 0 mm 3 mps 751 mmHg 86%
05:00 +25°C° 0 mm 2 mps 751 mmHg 86%
06:00 +26°C° 0 mm 2 mps 752 mmHg 80%
07:00 +28°C° 0 mm 2 mps 752 mmHg 75%
08:00 +29°C° 0 mm 1 mps 752 mmHg 70%
09:00 +31°C° 0 mm 2 mps 752 mmHg 64%
10:00 +34°C° 0 mm 2 mps 753 mmHg 58%
11:00 +35°C° 0 mm 2 mps 753 mmHg 52%
12:00 +35°C° 0.1 mm 3 mps 752 mmHg 59%
13:00 +34°C° 0.1 mm 3 mps 751 mmHg 65%
14:00 +33°C° 0.1 mm 3 mps 750 mmHg 72%
15:00 +33°C° 0.3 mm 3 mps 750 mmHg 77%
16:00 +31°C° 0.3 mm 2 mps 750 mmHg 83%
17:00 +30°C° 0.3 mm 2 mps 749 mmHg 88%
18:00 +29°C° 0.5 mm 3 mps 750 mmHg 91%
19:00 +28°C° 0.5 mm 3 mps 750 mmHg 93%
20:00 +27°C° 0.5 mm 4 mps 751 mmHg 96%
21:00 +26°C° 0.1 mm 4 mps 751 mmHg 94%
22:00 +26°C° 0.1 mm 4 mps 752 mmHg 93%
23:00 +26°C° 0.1 mm 4 mps 752 mmHg 92%

18 July, Saturday

Time Temperature Precipitation Wind Pressure Humidity
00:00 +26°C° 0 mm 4 mps 752 mmHg 91%
01:00 +25°C° 0 mm 4 mps 751 mmHg 90%
02:00 +25°C° 0 mm 4 mps 751 mmHg 90%
03:00 +25°C° 0 mm 3 mps 751 mmHg 88%
04:00 +25°C° 0 mm 3 mps 751 mmHg 87%
05:00 +25°C° 0 mm 2 mps 751 mmHg 86%
06:00 +26°C° 0 mm 2 mps 751 mmHg 81%
07:00 +28°C° 0 mm 2 mps 752 mmHg 77%
08:00 +30°C° 0 mm 1 mps 752 mmHg 73%
09:00 +31°C° 0 mm 2 mps 752 mmHg 68%
10:00 +32°C° 0 mm 2 mps 752 mmHg 63%
11:00 +35°C° 0 mm 3 mps 752 mmHg 58%
12:00 +34°C° 0.4 mm 3 mps 751 mmHg 66%
13:00 +32°C° 0.4 mm 2 mps 751 mmHg 75%
14:00 +31°C° 0.4 mm 2 mps 750 mmHg 83%
15:00 +31°C° 0.6 mm 2 mps 750 mmHg 87%
16:00 +30°C° 0.6 mm 2 mps 749 mmHg 90%
17:00 +29°C° 0.6 mm 2 mps 749 mmHg 93%
18:00 +28°C° 0.6 mm 3 mps 749 mmHg 94%
19:00 +27°C° 0.6 mm 3 mps 750 mmHg 96%
20:00 +26°C° 0.6 mm 4 mps 750 mmHg 97%
21:00 +26°C° 0.2 mm 4 mps 751 mmHg 96%
22:00 +26°C° 0.2 mm 4 mps 751 mmHg 95%
23:00 +26°C° 0.2 mm 4 mps 752 mmHg 94%

19 July, Sunday

Time Temperature Precipitation Wind Pressure Humidity
00:00 +26°C° 0.2 mm 4 mps 751 mmHg 94%
01:00 +26°C° 0.2 mm 4 mps 751 mmHg 93%
02:00 +25°C° 0.2 mm 3 mps 751 mmHg 93%
03:00 +25°C° 0 mm 3 mps 751 mmHg 93%
04:00 +25°C° 0 mm 3 mps 751 mmHg 92%
05:00 +25°C° 0 mm 2 mps 751 mmHg 92%
06:00 +26°C° 0 mm 2 mps 751 mmHg 88%
07:00 +28°C° 0 mm 1 mps 751 mmHg 85%
08:00 +29°C° 0 mm 1 mps 751 mmHg 81%
09:00 +31°C° 0 mm 2 mps 752 mmHg 74%
10:00 +32°C° 0 mm 2 mps 752 mmHg 66%
11:00 +35°C° 0 mm 3 mps 752 mmHg 59%
12:00 +34°C° 0.5 mm 2 mps 751 mmHg 67%
13:00 +32°C° 0.5 mm 2 mps 750 mmHg 75%
14:00 +31°C° 0.5 mm 2 mps 750 mmHg 83%
15:00 +31°C° 0.5 mm 2 mps 749 mmHg 86%
16:00 +30°C° 0.5 mm 2 mps 749 mmHg 89%
17:00 +29°C° 0.5 mm 3 mps 749 mmHg 91%
18:00 +28°C° 0.4 mm 3 mps 749 mmHg 92%
19:00 +28°C° 0.4 mm 4 mps 750 mmHg 94%
20:00 +27°C° 0.4 mm 4 mps 750 mmHg 95%
21:00 +26°C° 0 mm 4 mps 750 mmHg 94%
22:00 +26°C° 0 mm 4 mps 751 mmHg 93%
23:00 +26°C° 0 mm 4 mps 751 mmHg 92%
Show more